Location: Buffign�court
(47.8126°N, 6.0176°E)
Time: 19:30:50
(UTC+00:00)

Cosmos 1954 Rocket - Pass Details

Date: 16 June 2021
Orbit: 752 x 781 km, 74.1° (Epoch: 31 July)

Event Time Altitude Azimuth Distance (km) Brightness Sun altitude
Rises 20:07:32 0° 336° (NNW) 3,278 8.8 -4.8°
Reaches altitude 10° 20:09:56 10° 335° (NNW) 2,347 7.9 -5.0°
Maximum altitude 20:15:16 76° 251° (WSW) 810 4.2 -5.7°
Drops below altitude 10° 20:20:33 10° 166° (SSE) 2,327 6.0 -6.3°
Enters shadow 20:21:57 - 165° (SSE) 2,872 6.4 -6.5°
